This is the latest recevied weather packets stored in our database for station/object EA8DNP-14. If no packets are shown the sender has not sent any weather packets the latest 10 day(s).
| Time | Temp. | Humidity | Pressure | Rain* | Wind** | Luminosity | Snow |
|---|---|---|---|---|---|---|---|
| 1787672960 | 24.44° C | 45% | 902.1 hPa | - | - | - | - |
| 1787672060 | 25.56° C | 43% | 902.2 hPa | - | - | - | - |
| 1787671163 | 25° C | 44% | 902.2 hPa | - | - | - | - |
| 1787671056 | 25° C | 44% | 902.2 hPa | - | - | - | - |
| 1787670156 | 24.44° C | 44% | 902.1 hPa | - | - | - | - |
| 1787669256 | 24.44° C | 43% | 902.3 hPa | - | - | - | - |
| 1787668356 | 25° C | 43% | 902.4 hPa | - | - | - | - |
| 1787667456 | 24.44° C | 42% | 902.5 hPa | - | - | - | - |
| 1787666556 | 25.56° C | 42% | 902.6 hPa | - | - | - | - |
| 1787665659 | 25.56° C | 41% | 902.7 hPa | - | - | - | - |
| 1787664755 | 25.56° C | 41% | 902.9 hPa | - | - | - | - |
| 1787663855 | 26.11° C | 40% | 903 hPa | - | - | - | - |
| 1787662951 | 26.11° C | 41% | 903 hPa | - | - | - | - |
| 1787662051 | 26.11° C | 41% | 903.2 hPa | - | - | - | - |
| 1787661161 | 25.56° C | 42% | 903.3 hPa | - | - | - | - |
| 1787660251 | 24.44° C | 44% | 903.4 hPa | - | - | - | - |
| 1787659354 | 24.44° C | 44% | 903.5 hPa | - | - | - | - |
| 1787658450 | 23.89° C | 45% | 903.6 hPa | - | - | - | - |
| 1787657552 | 24.44° C | 43% | 903.7 hPa | - | - | - | - |
| 1787656660 | 25.56° C | 41% | 903.8 hPa | - | - | - | - |
| 1787655764 | 26.67° C | 39% | 903.6 hPa | - | - | - | - |
| 1787654850 | 26.67° C | 40% | 903.6 hPa | - | - | - | - |
| 1787653951 | 27.22° C | 39% | 903.6 hPa | - | - | - | - |
| 1787653050 | 26.67° C | 40% | 903.6 hPa | - | - | - | - |
| 1787652150 | 26.67° C | 39% | 903.5 hPa | - | - | - | - |
* Rain since midnight (hover to see other rain measurements)
** Current wind speed in m/s (hover to see current wind gust speed)